[[{"header":{"parameterUnit":"m.s-1","parameterCategory":2,"la1":30.2992,"la2":30.254,"lo1":-89.0895,"lo2":-89.0443,"dy":0.0025,"dx":0.0025,"nx":19,"ny":19,"refTime":"2026-03-09T03:00:00:Z","depth":"0","parameterNumber":2,"parameterNumberName":"U-component_of_CURRENTS"},"data":[0,0,0,0.3081,0.3082,0.3124,0.3124,0.3207,0.3207,0,0,0,0,0,0,0,0,0,0,0,0.3067,0.3067,0.3081,0.3082,0.3124,0.3124,0.3206,0.3207,0,0,0,0,0,0,0,0,0,0,0,0.3067,0.3067,0.3068,0.3082,0.3124,0.3124,0.3206,0.3168,0,0,0,0,0,0,0,0,0,0,0.3124,0.3115,0.3067,0.3068,0.3082,0.3124,0.3124,0.3166,0.3171,0.3195,0,0.32,0,0.3205,0.3213,0.3213,0,0,0,0.3085,0.3111,0.3113,0.3068,0.3083,0.3124,0.3106,0.3168,0.3173,0.3201,0.3201,0.3204,0.3206,0.3214,0.3214,0.3364,0.3364,0,0,0.3083,0.3086,0.3109,0.3116,0.3093,0.3104,0.3107,0.3171,0.3183,0.3201,0.3206,0.3208,0.3214,0.3215,0.3363,0.3364,0,0,0,0.3074,0.3084,0.3085,0.3113,0.3118,0.3106,0.3109,0.318,0.3177,0.3207,0.3209,0.3215,0.3216,0.3362,0.3363,0.3421,0,0,0,0.3073,0.3079,0.3083,0.3087,0.3117,0.3148,0.3116,0.3173,0.318,0.3208,0.3215,0.3217,0.336,0.3362,0.3417,0.3401,0,0,0,0.3065,0.3078,0.308,0.3087,0.3102,0.3147,0.3148,0.3174,0.3182,0.3214,0.3217,0.336,0.3362,0.3413,0.3397,0.3451,0,0,0,0.307,0.3072,0.3081,0.3108,0.3102,0.3162,0.3148,0.3199,0.3231,0.3215,0.3361,0.3363,0.3412,0.3394,0.3448,0.3368,0.3376,0,0,0.307,0.3073,0.3093,0.3101,0.3148,0.3156,0.3239,0.3267,0.3276,0.3339,0.3343,0.3418,0.3397,0.345,0.3503,0.3506,0,0,0,0.3093,0.3094,0.3118,0.315,0.3199,0.3252,0.3289,0.3328,0.3399,0.3304,0.345,0.3434,0.3466,0.3413,0.3417,0.3316,0.3374,0.3373,0.3373,0.3076,0.3109,0.3145,0.3189,0.3239,0.333,0.339,0.345,0.3459,0.3514,0.3507,0.3614,0.3561,0.3562,0.3461,0.3557,0.3557,0.3557,0.3558,0.3066,0.3073,0.3148,0.3181,0.3267,0.3338,0.3478,0.3518,0.3624,0.3603,0.3633,0.3507,0.3569,0.346,0.3562,0.3561,0.356,0.356,0.356,0.302,0.3023,0.3064,0.3124,0.3217,0.3333,0.3433,0.3551,0.3645,0.369,0.3641,0.3638,0.3517,0.372,0.3721,0.3721,0.3721,0.3721,0.3721,0.2937,0.2978,0.2992,0.3066,0.3111,0.3221,0.3411,0.3495,0.3621,0.3675,0.3675,0.3542,0.3663,0.3628,0.3725,0.3724,0.3724,0.3723,0.3723,0.2836,0.2872,0.2873,0.2908,0.3018,0.3041,0.3254,0.3405,0.3533,0.357,0.3537,0.3679,0.3645,0.3641,0.3606,0.3691,0.3691,0.3691,0.3691,0.2774,0.2791,0.2787,0.281,0.2875,0.2966,0.2957,0.3091,0.3301,0.3362,0.347,0.3405,0.341,0.3359,0.3361,0.3319,0.333,0.3329,0.3329,0.2729,0.2738,0.2701,0.2735,0.2804,0.2837,0.2732,0.2697,0.303,0.3307,0.3351,0.3366,0.3264,0.3281,0.3193,0.3204,0.3133,0,0]},{"header":{"parameterUnit":"m.s-1","parameterCategory":2,"la1":30.2992,"la2":30.254,"lo1":-89.0895,"lo2":-89.0443,"dy":0.0025,"dx":0.0025,"nx":19,"ny":19,"refTime":"2026-03-09T03:00:00:Z","depth":"0","parameterNumber":3,"parameterNumberName":"V-component_of_CURRENTS"},"data":[0,0,0,0.0128,0.0128,0.0099,0.0099,0.0008,0.0007,0,0,0,0,0,0,0,0,0,0,0,0.014,0.014,0.0128,0.0128,0.0099,0.0099,0.0008,0.0007,0,0,0,0,0,0,0,0,0,0,0,0.014,0.014,0.014,0.0128,0.0099,0.0099,0.0008,0.004,0,0,0,0,0,0,0,0,0,0,0.0074,0.0089,0.014,0.014,0.0128,0.0099,0.0099,0.0042,0.0038,0.0009,0,0.0016,0,0.0013,0.0001,0.0,0,0,0,0.0116,0.0092,0.0095,0.014,0.0128,0.0099,0.0109,0.0041,0.0036,0.0004,0.0015,0.0012,0.0011,0.0,-0.0,-0.0063,-0.0063,0,0,0.0117,0.0119,0.0098,0.0092,0.0133,0.011,0.0108,0.0038,0.0031,0.0015,0.001,0.001,-0.0001,-0.0001,-0.0063,-0.0063,0,0,0,0.013,0.012,0.0125,0.0096,0.0097,0.0109,0.0107,0.0034,0.0039,0.0009,0.0009,-0.0001,-0.0002,-0.0063,-0.0063,0.0048,0,0,0,0.0131,0.0129,0.0126,0.0124,0.0099,0.007,0.0104,0.0044,0.0036,0.0009,-0.0001,-0.0003,-0.0063,-0.0063,0.0045,0.0114,0,0,0,0.0139,0.0129,0.0133,0.0125,0.0119,0.0072,0.0072,0.0043,0.0036,0.0,-0.0003,-0.0063,-0.0063,0.0042,0.0108,0.0189,0,0,0,0.0131,0.0155,0.0133,0.0152,0.012,0.0122,0.0073,0.0054,0.0028,-0.0002,-0.0063,-0.0063,0.0041,0.0104,0.0185,0.0356,0.039,0,0,0.0163,0.0159,0.0171,0.0151,0.0181,0.0124,0.0137,0.0078,0.0015,-0.0046,-0.0048,0.0046,0.0108,0.0188,0.0356,0.0391,0,0,0,0.0182,0.0202,0.0203,0.0212,0.0195,0.02,0.0133,0.01,0.0051,0.0002,0.0014,0.005,0.0098,0.019,0.0217,0.0119,-0.0063,-0.0063,-0.0063,0.0244,0.0242,0.0274,0.0277,0.0274,0.024,0.0235,0.0174,0.0094,0.0083,0.0117,0.0222,0.0319,0.0342,0.0237,0.0077,0.0077,0.0077,0.0078,0.0323,0.0352,0.0344,0.038,0.0372,0.0376,0.0331,0.0289,0.0275,0.018,0.0221,0.0272,0.0379,0.0255,0.0084,0.0083,0.0082,0.0082,0.0081,0.0383,0.0398,0.0413,0.0465,0.0503,0.0481,0.0562,0.0486,0.0395,0.0427,0.0517,0.0517,0.0433,0.0445,0.0446,0.0446,0.0447,0.0447,0.0448,0.0438,0.0455,0.0515,0.0561,0.061,0.0685,0.0698,0.0725,0.0726,0.0666,0.0667,0.0464,0.0335,0.0348,0.0458,0.0456,0.0455,0.0454,0.0453,0.0523,0.0524,0.0624,0.0682,0.0815,0.0981,0.0986,0.1114,0.1093,0.1137,0.0828,0.0792,0.0781,0.0759,0.0781,0.0998,0.0998,0.0998,0.0998,0.0577,0.0583,0.0727,0.0848,0.1006,0.1124,0.1404,0.1459,0.1276,0.1144,0.0991,0.0917,0.09,0.0887,0.0862,0.0881,0.1118,0.1117,0.1117,0.0635,0.0671,0.0793,0.0909,0.1092,0.1315,0.1604,0.1736,0.1403,0.11,0.082,0.0815,0.0673,0.0653,0.0598,0.0572,0.0589,0,0]}],[{"header":{"parameterUnit":"m.s-1","parameterCategory":2,"la1":30.2992,"la2":30.254,"lo1":-89.0895,"lo2":-89.0443,"dy":0.0025,"dx":0.0025,"nx":19,"ny":19,"refTime":"2026-03-09T03:00:00:Z","depth":"2","parameterNumber":2,"parameterNumberName":"U-component_of_CURRENTS"},"data":[0,0,0,0.2174,0.2175,0.226,0.226,0.2342,0.2342,0,0,0,0,0,0,0,0,0,0,0,0.2159,0.216,0.2174,0.2176,0.226,0.226,0.2342,0.2342,0,0,0,0,0,0,0,0,0,0,0,0.2159,0.216,0.216,0.2176,0.2259,0.226,0.2342,0.2287,0,0,0,0,0,0,0,0,0,0,0.221,0.2184,0.2159,0.216,0.2176,0.2259,0.226,0.2285,0.2291,0.2293,0,0.2312,0,0.2318,0.2346,0.2346,0,0,0,0.2187,0.218,0.221,0.2161,0.2177,0.2259,0.2225,0.2289,0.2295,0.23,0.2313,0.2316,0.2319,0.2347,0.2347,0.2434,0.2435,0,0,0.2182,0.2166,0.2205,0.2214,0.2206,0.2222,0.2227,0.2293,0.2297,0.2314,0.2318,0.232,0.2347,0.2347,0.2434,0.2434,0,0,0,0.2161,0.2163,0.2192,0.221,0.2221,0.2224,0.223,0.2295,0.2307,0.2319,0.2321,0.2347,0.2348,0.2433,0.2434,0.2511,0,0,0,0.2159,0.215,0.219,0.218,0.222,0.2259,0.2231,0.2303,0.231,0.2321,0.2347,0.2349,0.2432,0.2433,0.2507,0.251,0,0,0,0.2154,0.2148,0.2163,0.2179,0.2209,0.2258,0.2274,0.2305,0.2311,0.2347,0.2349,0.2432,0.2433,0.2505,0.2506,0.2551,0,0,0,0.2128,0.216,0.2163,0.2196,0.2209,0.2269,0.2274,0.2323,0.2357,0.2348,0.2433,0.2434,0.2504,0.2503,0.2548,0.2479,0.2486,0,0,0.2154,0.2162,0.2182,0.2187,0.2245,0.2258,0.2319,0.2364,0.2375,0.2409,0.2412,0.2509,0.2505,0.255,0.2551,0.2556,0,0,0,0.2182,0.2185,0.2209,0.2237,0.2287,0.2342,0.2367,0.2411,0.2486,0.2398,0.2512,0.2507,0.2533,0.2486,0.2491,0.244,0.244,0.2439,0.2439,0.2162,0.2193,0.2227,0.227,0.2321,0.2394,0.2454,0.251,0.2515,0.2576,0.2575,0.2661,0.2613,0.2615,0.2595,0.2596,0.2596,0.2596,0.2596,0.2167,0.2174,0.2229,0.2267,0.2345,0.2402,0.254,0.2581,0.2676,0.2666,0.2689,0.2574,0.2625,0.2603,0.2601,0.2601,0.26,0.2599,0.2599,0.2123,0.2136,0.2161,0.2229,0.2319,0.2422,0.2533,0.2636,0.2725,0.2761,0.2706,0.2703,0.2694,0.2786,0.2786,0.2787,0.2787,0.2787,0.2787,0.2067,0.2103,0.2117,0.22,0.2234,0.2359,0.254,0.2609,0.2713,0.276,0.2759,0.2725,0.2718,0.2704,0.2791,0.279,0.279,0.2789,0.2789,0.2005,0.2029,0.2047,0.2065,0.2162,0.2207,0.2402,0.254,0.2648,0.268,0.2762,0.2761,0.2722,0.2716,0.2701,0.2782,0.2782,0.2782,0.2782,0.1947,0.197,0.1975,0.1991,0.204,0.2133,0.2149,0.2278,0.2482,0.2556,0.2565,0.2499,0.2505,0.2449,0.245,0.2427,0.2436,0.2436,0.2435,0.1901,0.1915,0.1895,0.1934,0.1964,0.2009,0.1961,0.1953,0.2151,0.2416,0.2454,0.2769,0.2696,0.2696,0.2626,0.2621,0.2591,0,0]},{"header":{"parameterUnit":"m.s-1","parameterCategory":2,"la1":30.2992,"la2":30.254,"lo1":-89.0895,"lo2":-89.0443,"dy":0.0025,"dx":0.0025,"nx":19,"ny":19,"refTime":"2026-03-09T03:00:00:Z","depth":"2","parameterNumber":3,"parameterNumberName":"V-component_of_CURRENTS"},"data":[0,0,0,0.0184,0.0183,0.0135,0.0135,0.0058,0.0058,0,0,0,0,0,0,0,0,0,0,0,0.0198,0.0198,0.0184,0.0183,0.0135,0.0135,0.0059,0.0058,0,0,0,0,0,0,0,0,0,0,0,0.0198,0.0198,0.0197,0.0183,0.0135,0.0134,0.0059,0.0095,0,0,0,0,0,0,0,0,0,0,0.0143,0.0163,0.0198,0.0197,0.0183,0.0135,0.0134,0.0097,0.0093,0.0081,0,0.0081,0,0.0075,0.0054,0.0054,0,0,0,0.0169,0.0167,0.0156,0.0197,0.0183,0.0135,0.0153,0.0095,0.009,0.0076,0.008,0.0077,0.0074,0.0053,0.0053,0.0055,0.0055,0,0,0.0172,0.0183,0.016,0.0154,0.0179,0.0154,0.0151,0.0092,0.009,0.0079,0.0075,0.0072,0.0053,0.0053,0.0055,0.0055,0,0,0,0.0189,0.0185,0.0176,0.0157,0.0153,0.0153,0.015,0.0092,0.009,0.0074,0.0072,0.0053,0.0052,0.0054,0.0055,0.0144,0,0,0,0.019,0.0196,0.0177,0.0182,0.0155,0.0125,0.0151,0.0094,0.0087,0.0072,0.0053,0.0051,0.0053,0.0054,0.014,0.0203,0,0,0,0.0198,0.0197,0.0195,0.0183,0.017,0.0125,0.0119,0.0092,0.0086,0.0054,0.0051,0.0053,0.0054,0.0137,0.0196,0.0234,0,0,0,0.0206,0.0224,0.0195,0.0216,0.017,0.0181,0.0119,0.0109,0.0089,0.0052,0.0054,0.0055,0.0136,0.0192,0.0231,0.0285,0.0307,0,0,0.0237,0.0228,0.0242,0.0217,0.0251,0.0186,0.0218,0.0156,0.0101,0.0068,0.0068,0.0142,0.0196,0.0234,0.035,0.037,0,0,0,0.0259,0.0273,0.0277,0.0288,0.0279,0.0282,0.0222,0.0194,0.0155,0.0096,0.014,0.0172,0.0192,0.0217,0.0233,0.006,0.006,0.006,0.006,0.0318,0.032,0.0357,0.0359,0.0364,0.0346,0.0341,0.0291,0.0221,0.0216,0.0242,0.0333,0.036,0.0372,0.0226,0.0226,0.0226,0.0227,0.0227,0.0386,0.0413,0.0419,0.0458,0.0462,0.0481,0.0449,0.0409,0.0394,0.0319,0.0333,0.0308,0.0395,0.0234,0.0233,0.0232,0.0231,0.023,0.023,0.0428,0.0444,0.0464,0.0522,0.0576,0.0575,0.0636,0.0584,0.0494,0.0512,0.0506,0.0504,0.0392,0.0506,0.0506,0.0507,0.0507,0.0508,0.0508,0.0463,0.0483,0.0542,0.0599,0.0654,0.0732,0.0743,0.0744,0.0699,0.0628,0.0627,0.0427,0.0417,0.0408,0.0515,0.0514,0.0513,0.0512,0.0512,0.0516,0.0526,0.0613,0.0677,0.0816,0.0938,0.0938,0.0955,0.0913,0.0905,0.068,0.0673,0.065,0.0636,0.0631,0.079,0.079,0.079,0.079,0.0555,0.0565,0.0689,0.0801,0.0945,0.1041,0.117,0.1136,0.0998,0.0881,0.0877,0.0823,0.0811,0.0791,0.0773,0.0769,0.0964,0.0964,0.0964,0.06,0.0634,0.073,0.0837,0.1006,0.1158,0.1284,0.1244,0.1026,0.0968,0.0875,0.0808,0.0714,0.07,0.0652,0.0631,0.0615,0,0]}],[{"header":{"parameterUnit":"m.s-1","parameterCategory":2,"la1":30.2992,"la2":30.254,"lo1":-89.0895,"lo2":-89.0443,"dy":0.0025,"dx":0.0025,"nx":19,"ny":19,"refTime":"2026-03-09T03:00:00:Z","depth":"4","parameterNumber":2,"parameterNumberName":"U-component_of_CURRENTS"},"data":[0,0,0,0.1402,0.1405,0.1523,0.1524,0.1624,0.1624,0,0,0,0,0,0,0,0,0,0,0,0.137,0.1371,0.1402,0.1405,0.1523,0.1524,0.1624,0.1624,0,0,0,0,0,0,0,0,0,0,0,0.1369,0.1371,0.1372,0.1405,0.1523,0.1524,0.1623,0.1547,0,0,0,0,0,0,0,0,0,0,0.1438,0.1419,0.137,0.1372,0.1406,0.1523,0.1524,0.1544,0.1552,0.1555,0,0.1586,0,0.1604,0.163,0.163,0,0,0,0.1405,0.1412,0.1441,0.1372,0.1407,0.1523,0.147,0.1548,0.1557,0.1565,0.1588,0.1592,0.1605,0.163,0.1631,0.1709,0.1709,0,0,0.1398,0.1392,0.1435,0.1447,0.1454,0.1466,0.1474,0.1554,0.1571,0.1588,0.1594,0.1607,0.1631,0.1632,0.1709,0.1709,0,0,0,0.138,0.1388,0.1415,0.1442,0.1466,0.1469,0.1478,0.1568,0.1577,0.1595,0.1608,0.1631,0.1632,0.1708,0.1709,0.1761,0,0,0,0.1376,0.1377,0.1412,0.141,0.1465,0.1526,0.149,0.1571,0.1581,0.1608,0.1631,0.1633,0.1708,0.1708,0.1759,0.1781,0,0,0,0.1362,0.1375,0.1393,0.1409,0.1459,0.1525,0.1539,0.1574,0.1588,0.163,0.1634,0.1708,0.1708,0.1757,0.1778,0.1833,0,0,0,0.1344,0.1372,0.1393,0.1429,0.1458,0.1517,0.1539,0.1596,0.1633,0.1632,0.1708,0.1709,0.1757,0.1776,0.183,0.1616,0,0,0,0.1361,0.1375,0.1392,0.1413,0.1461,0.1499,0.1561,0.1624,0.164,0.1677,0.168,0.176,0.1777,0.1832,0.165,0,0,0,0,0.1383,0.14,0.1417,0.1457,0.15,0.1563,0.1614,0.1646,0.1714,0.1666,0.1756,0.1766,0.1799,0.1666,0.1711,0.1711,0.1711,0.1711,0.1711,0.1383,0.1407,0.1438,0.1479,0.1528,0.1611,0.1667,0.1721,0.173,0.177,0.1806,0.1879,0.1739,0.1803,0.1804,0.1804,0.1804,0.1804,0.1804,0.1387,0.1392,0.1451,0.1494,0.1566,0.1634,0.1738,0.1777,0.1867,0.1846,0.1877,0.1726,0.1809,0.1808,0.1808,0.1807,0.1807,0.1806,0.1806,0.1358,0.1361,0.1411,0.1481,0.157,0.1666,0.1763,0.1856,0.1919,0.1961,0.1838,0.1923,0.1923,0.1993,0.1993,0.1994,0.1994,0.1994,0.1995,0.1294,0.1339,0.1377,0.1463,0.1517,0.163,0.1794,0.1856,0.1953,0.1875,0.1992,0.1943,0.1937,0.1933,0.2,0.1999,0.1998,0.1998,0.1997,0.123,0.1269,0.131,0.1361,0.1467,0.1522,0.1711,0.1792,0.1848,0.1838,0.1827,0.1834,0.18,0.1798,0.1788,0.1814,0.1812,0.1809,0,0.1177,0.12,0.1242,0.1285,0.1333,0.1448,0.1485,0.1591,0.1681,0.1622,0.1842,0.1826,0.183,0.1786,0.1781,0.1765,0,0,0,0.1132,0.1155,0.1156,0.1212,0.1248,0.1338,0.1483,0.147,0.1668,0.1667,0.1747,0.1763,0.1905,0.2016,0.1981,0.1974,0.1967,0,0]},{"header":{"parameterUnit":"m.s-1","parameterCategory":2,"la1":30.2992,"la2":30.254,"lo1":-89.0895,"lo2":-89.0443,"dy":0.0025,"dx":0.0025,"nx":19,"ny":19,"refTime":"2026-03-09T03:00:00:Z","depth":"4","parameterNumber":3,"parameterNumberName":"V-component_of_CURRENTS"},"data":[0,0,0,0.0205,0.0205,0.0179,0.0178,0.0133,0.0132,0,0,0,0,0,0,0,0,0,0,0,0.0215,0.0215,0.0205,0.0205,0.0179,0.0178,0.0133,0.0132,0,0,0,0,0,0,0,0,0,0,0,0.0215,0.0215,0.0216,0.0205,0.0179,0.0178,0.0133,0.0153,0,0,0,0,0,0,0,0,0,0,0.018,0.0195,0.0215,0.0216,0.0205,0.0179,0.0178,0.0154,0.0152,0.0144,0,0.0147,0,0.0142,0.013,0.013,0,0,0,0.0196,0.0197,0.0191,0.0216,0.0205,0.0179,0.0188,0.0153,0.0151,0.0141,0.0147,0.0145,0.0141,0.0129,0.0129,0.0154,0.0155,0,0,0.0197,0.0207,0.0193,0.0189,0.0207,0.0189,0.0187,0.0152,0.0152,0.0146,0.0144,0.0141,0.0129,0.0129,0.0154,0.0154,0,0,0,0.0208,0.0208,0.0203,0.0191,0.0189,0.0188,0.0186,0.0153,0.0152,0.0143,0.014,0.0129,0.0129,0.0153,0.0154,0.0221,0,0,0,0.0208,0.0214,0.0203,0.0208,0.019,0.0173,0.0189,0.0155,0.0151,0.014,0.0129,0.0128,0.0153,0.0154,0.0218,0.0255,0,0,0,0.0215,0.0215,0.0215,0.0209,0.0201,0.0173,0.017,0.0154,0.0149,0.013,0.0128,0.0152,0.0153,0.0215,0.025,0.0261,0,0,0,0.022,0.0236,0.0215,0.0235,0.0202,0.022,0.017,0.0171,0.0161,0.0129,0.0153,0.0154,0.0214,0.0247,0.0259,0.0262,0,0,0,0.0245,0.0239,0.0253,0.0234,0.027,0.0222,0.0254,0.0213,0.0178,0.016,0.0161,0.0219,0.025,0.0261,0.0339,0,0,0,0,0.0265,0.0275,0.0283,0.0296,0.0298,0.0306,0.0266,0.025,0.0234,0.0179,0.0227,0.0245,0.0249,0.0243,0.016,0.016,0.016,0.016,0.016,0.0305,0.0311,0.0347,0.0356,0.0368,0.0363,0.0361,0.0333,0.0289,0.0295,0.0305,0.0369,0.0368,0.0306,0.0307,0.0307,0.0307,0.0307,0.0308,0.0353,0.0376,0.0393,0.043,0.0444,0.0468,0.0452,0.0426,0.0415,0.0375,0.0375,0.0323,0.0314,0.0313,0.0312,0.0311,0.0311,0.031,0.031,0.0377,0.0392,0.0416,0.0475,0.0531,0.0542,0.0585,0.0553,0.0487,0.0493,0.0459,0.0411,0.0397,0.0484,0.0484,0.0485,0.0485,0.0485,0.0485,0.0392,0.0418,0.047,0.0529,0.0583,0.0649,0.0666,0.0652,0.059,0.0545,0.0511,0.0428,0.0423,0.0406,0.0489,0.0488,0.0488,0.0487,0.0487,0.0416,0.0435,0.0509,0.0567,0.0691,0.0738,0.076,0.0715,0.0693,0.0639,0.0556,0.0551,0.0522,0.0513,0.0499,0.0612,0.0612,0.0612,0,0.0435,0.0448,0.0552,0.0646,0.0747,0.0794,0.0801,0.0777,0.0679,0.0667,0.067,0.0578,0.0573,0.054,0.0533,0.0518,0,0,0,0.0458,0.0489,0.0562,0.0657,0.0772,0.0797,0.0805,0.0775,0.0703,0.0675,0.0621,0.0619,0.0573,0.05,0.0443,0.0436,0.0407,0,0]}]]